Regional Weather Roundup
Issued by NWS Sioux Falls, SD

Home | Current Version | Previous Version | Graphics & Text | Print | Product List | Glossary On
Versions: 1 2 3 4 5 6 7 8 9 10 11 12 13 14 15 16 17 18 19 20 21 22 23 24 25 26 27 28 29 30 31 32 33 34 35 36 37 38 39 40 41 42 43 44 45 46 47 48 49 50
758
ASUS43 KFSD 291410
RWRFSD

WEATHER ROUNDUP FOR SE SOUTH DAKOTA/SW MINNESOTA/NW IOWA
NATIONAL WEATHER SERVICE SIOUX FALLS SD
900 AM CDT FRI APR 29 2016

NOTE: "FAIR" INDICATES FEW OR NO CLOUDS BELOW 12,000 FEET WITH NO
SIGNIFICANT WEATHER AND OR OBSTRUCTIONS TO VISIBILITY.


SDZ038>040-050-052>070-291500-
SOUTHEAST SOUTH DAKOTA

CITY           SKY/WX    TMP DP  RH WIND       PRES   REMARKS
BROOKINGS        N/A     40  36  86 MISG      30.16R
CHAMBERLAIN    CLOUDY    40  38  92 NE5       30.14F
HURON          MOSUNNY   43  37  79 NE14      30.15F
MADISON        CLOUDY    37  37 100 NE10      30.15S
MITCHELL       CLOUDY    41  38  89 NE8       30.16S
SIOUX FALLS    CLOUDY    41  36  82 NE13      30.14F
WINNER         CLOUDY    41  36  82 NE9       30.11F
YANKTON        CLOUDY    41  36  81 N9        30.11F
$$

MNZ071-072-080-081-089-090-097-098-291500-
SOUTHWEST MINNESOTA

CITY           SKY/WX    TMP DP  RH WIND       PRES   REMARKS
FAIRMONT       CLOUDY    37  28  70 NE9       30.15F
JACKSON        CLOUDY    39  36  87 N10       30.15S
LUVERNE        CLOUDY    37  34  87 NE9       30.14F
MARSHALL       CLOUDY    41  37  86 NE6       30.19S
MONTEVIDEO     MOSUNNY   45  43  93 NE9       30.20F
PIPESTONE      CLOUDY    37  36  93 NE7       30.14F
REDWOOD FALLS  PTSUNNY   41  36  82 NE5       30.18S
TRACY          CLOUDY    39  37  95 NE7       30.19R
WINDOM         CLOUDY    37  36  93 CALM      30.16F
WORTHINGTON    CLOUDY    38  35  89 NE13      30.15S
$$

IAZ001>003-012>014-020>022-031-032-NEZ013-014-SDZ071-291500-
NORTHWEST IOWA

CITY           SKY/WX    TMP DP  RH WIND       PRES   REMARKS
CHEROKEE       CLOUDY    42  40  93 NE13      30.10F
DENISON        CLOUDY    43  41  93 NE14      30.04F
ESTHERVILLE    CLOUDY    40  37  89 N13       30.14F
LE MARS        CLOUDY    43  39  87 NE12      30.12F
ORANGE CITY    CLOUDY    39  39 100 NE6       30.12S FOG
SHELDON        CLOUDY    41  39  93 NE12      30.11F
SIOUX CITY     CLOUDY    45  39  79 N10       30.09F
SPENCER        CLOUDY    40  37  89 NE12      30.13F
STORM LAKE     CLOUDY    41  39  93 NE18      30.08F
$$

ABBREVIATIONS USED IN REMARKS
   TC - TEMPERATURE IN CELSIUS
  WCI - WIND CHILL INDEX
   HX - HEAT INDEX
  VSB - VISIBILITY





USA.gov is the U.S. government's official web portal to all federal, state and local government web resources and services.